TPC1496 KDAY-KCDI

Flight info

Callsign TPC1496
Flight time 0h 47m
Altitude VFR/065
Route FF
Aircraft PA24/L-DOV/C

Departure

Time 2026-04-23 02:59
Airport James M. Cox Dayton International Airport (KDAY)

Arrival

Time 2026-04-23 03:46
Airport Cambridge Municipal Airport (KCDI)
Time Latitude Longitude Altitude Speed Heading
2026-04-23 02:52 39.90453 -84.20775 1007 ft 0 kts 192°
2026-04-23 02:53 39.90449 -84.20778 1007 ft 4 kts 231°
2026-04-23 02:53 39.90447 -84.20873 1006 ft 16 kts 270°
2026-04-23 02:54 39.90422 -84.20952 1006 ft 7 kts 189°
2026-04-23 02:54 39.90353 -84.20961 1006 ft 13 kts 181°
2026-04-23 02:54 39.90259 -84.20962 1006 ft 14 kts 180°
2026-04-23 02:54 39.90172 -84.20965 1006 ft 10 kts 199°
2026-04-23 02:55 39.90155 -84.21042 1008 ft 13 kts 270°
2026-04-23 02:55 39.90118 -84.21149 1009 ft 16 kts 183°
2026-04-23 02:55 39.89997 -84.21146 1008 ft 18 kts 179°
2026-04-23 02:55 39.89870 -84.21144 1009 ft 18 kts 180°
2026-04-23 02:56 39.89773 -84.21228 1009 ft 18 kts 235°
2026-04-23 02:56 39.89703 -84.21358 1010 ft 17 kts 237°
2026-04-23 02:56 39.89636 -84.21487 1009 ft 18 kts 236°
2026-04-23 02:56 39.89563 -84.21621 1007 ft 18 kts 236°
2026-04-23 02:57 39.89493 -84.21754 1007 ft 18 kts 235°
2026-04-23 02:57 39.89418 -84.21895 1007 ft 20 kts 234°
2026-04-23 02:57 39.89344 -84.22031 1010 ft 18 kts 233°
2026-04-23 02:57 39.89269 -84.22174 1011 ft 20 kts 236°
2026-04-23 02:58 39.89189 -84.22319 1014 ft 16 kts 234°
2026-04-23 02:58 39.89117 -84.22359 1012 ft 12 kts 150°
2026-04-23 02:58 39.89079 -84.22276 1011 ft 13 kts 55°
2026-04-23 02:58 39.89131 -84.22182 1011 ft 48 kts 55°
2026-04-23 02:59 39.89436 -84.21636 1095 ft 92 kts 57°
2026-04-23 02:59 39.89811 -84.20889 1292 ft 104 kts 67°
2026-04-23 02:59 39.90011 -84.19958 1528 ft 111 kts 82°
2026-04-23 02:59 39.90130 -84.18930 1722 ft 121 kts 84°
2026-04-23 03:00 39.90228 -84.17802 1915 ft 131 kts 85°
2026-04-23 03:00 39.90330 -84.16579 2076 ft 141 kts 85°
2026-04-23 03:00 39.90433 -84.15290 2255 ft 145 kts 85°
2026-04-23 03:00 39.90532 -84.13962 2376 ft 151 kts 85°
2026-04-23 03:01 39.90624 -84.12592 2495 ft 155 kts 86°
2026-04-23 03:01 39.90693 -84.11170 2561 ft 159 kts 88°
2026-04-23 03:01 39.90745 -84.09720 2612 ft 162 kts 88°
2026-04-23 03:01 39.90784 -84.08245 2694 ft 163 kts 89°
2026-04-23 03:02 39.90804 -84.06765 2753 ft 164 kts 90°
2026-04-23 03:02 39.90824 -84.05274 2826 ft 165 kts 90°
2026-04-23 03:02 39.90853 -84.03772 2892 ft 167 kts 88°
2026-04-23 03:02 39.90926 -84.02254 2915 ft 169 kts 86°
2026-04-23 03:03 39.91026 -84.00718 2919 ft 170 kts 85°
2026-04-23 03:03 39.91140 -83.99206 3028 ft 164 kts 84°
2026-04-23 03:03 39.91254 -83.97764 3243 ft 158 kts 84°
2026-04-23 03:03 39.91371 -83.96338 3407 ft 159 kts 84°
2026-04-23 03:04 39.91484 -83.94904 3617 ft 158 kts 85°
2026-04-23 03:04 39.91583 -83.93489 3821 ft 156 kts 84°
2026-04-23 03:04 39.91678 -83.92073 3994 ft 158 kts 86°
2026-04-23 03:04 39.91706 -83.90646 4181 ft 157 kts 90°
2026-04-23 03:05 39.91691 -83.89220 4378 ft 157 kts 92°
2026-04-23 03:05 39.91648 -83.87802 4562 ft 157 kts 94°
2026-04-23 03:05 39.91563 -83.86377 4724 ft 159 kts 97°
2026-04-23 03:05 39.91433 -83.84948 4915 ft 159 kts 98°
2026-04-23 03:06 39.91327 -83.83508 5085 ft 160 kts 96°
2026-04-23 03:06 39.91240 -83.82057 5260 ft 161 kts 95°
2026-04-23 03:06 39.91163 -83.80598 5427 ft 161 kts 94°
2026-04-23 03:06 39.91118 -83.79136 5588 ft 162 kts 92°
2026-04-23 03:07 39.91099 -83.77676 5772 ft 161 kts 91°
2026-04-23 03:07 39.91100 -83.76219 5934 ft 161 kts 90°
2026-04-23 03:07 39.91105 -83.74756 6090 ft 162 kts 90°
2026-04-23 03:07 39.91131 -83.73294 6251 ft 161 kts 87°
2026-04-23 03:08 39.91191 -83.71835 6424 ft 161 kts 85°
2026-04-23 03:08 39.91276 -83.70378 6561 ft 162 kts 84°
2026-04-23 03:08 39.91372 -83.68913 6701 ft 162 kts 84°
2026-04-23 03:08 39.91472 -83.67453 6837 ft 162 kts 84°
2026-04-23 03:09 39.91580 -83.65990 6962 ft 163 kts 83°
2026-04-23 03:09 39.91689 -83.64526 7101 ft 162 kts 83°
2026-04-23 03:09 39.91792 -83.63059 7234 ft 163 kts 83°
2026-04-23 03:09 39.91885 -83.61595 7385 ft 162 kts 84°
2026-04-23 03:10 39.91967 -83.60143 7522 ft 159 kts 84°
2026-04-23 03:10 39.92055 -83.58686 7516 ft 162 kts 84°
2026-04-23 03:10 39.92138 -83.57220 7535 ft 163 kts 84°
2026-04-23 03:10 39.92211 -83.55742 7536 ft 164 kts 85°
2026-04-23 03:11 39.92279 -83.54276 7568 ft 163 kts 85°
2026-04-23 03:11 39.92343 -83.52791 7570 ft 164 kts 85°
2026-04-23 03:11 39.92407 -83.51303 7571 ft 164 kts 85°
2026-04-23 03:11 39.92476 -83.49819 7567 ft 165 kts 84°
2026-04-23 03:12 39.92556 -83.48317 7549 ft 166 kts 84°
2026-04-23 03:12 39.92649 -83.46828 7568 ft 165 kts 83°
2026-04-23 03:12 39.92761 -83.45339 7551 ft 166 kts 82°
2026-04-23 03:12 39.92897 -83.43868 7553 ft 165 kts 81°
2026-04-23 03:13 39.93056 -83.42393 7554 ft 165 kts 79°
2026-04-23 03:13 39.93241 -83.40917 7543 ft 165 kts 78°
2026-04-23 03:13 39.93433 -83.39447 7549 ft 164 kts 78°
2026-04-23 03:13 39.93602 -83.37972 7542 ft 165 kts 80°
2026-04-23 03:14 39.93744 -83.36490 7540 ft 165 kts 81°
2026-04-23 03:14 39.93868 -83.35004 7539 ft 165 kts 82°
2026-04-23 03:14 39.93983 -83.33518 7532 ft 165 kts 82°
2026-04-23 03:14 39.94098 -83.32030 7530 ft 165 kts 82°
2026-04-23 03:15 39.94218 -83.30543 7526 ft 165 kts 82°
2026-04-23 03:15 39.94339 -83.29157 7521 ft 165 kts 81°
2026-04-23 03:15 39.94464 -83.27673 7525 ft 165 kts 82°
2026-04-23 03:15 39.94579 -83.26186 7525 ft 165 kts 82°
2026-04-23 03:16 39.94688 -83.24737 7521 ft 165 kts 82°
2026-04-23 03:16 39.94797 -83.23247 7524 ft 165 kts 82°
2026-04-23 03:16 39.95011 -83.20269 7517 ft 165 kts 84°
2026-04-23 03:17 39.95075 -83.18774 7514 ft 165 kts 86°
2026-04-23 03:17 39.95109 -83.17275 7514 ft 165 kts 87°
2026-04-23 03:17 39.95156 -83.15775 7512 ft 165 kts 85°
2026-04-23 03:17 39.95222 -83.14281 7513 ft 165 kts 84°
2026-04-23 03:18 39.95305 -83.12786 7512 ft 165 kts 83°
2026-04-23 03:18 39.95400 -83.11298 7511 ft 165 kts 84°
2026-04-23 03:18 39.95471 -83.09804 7508 ft 165 kts 85°
2026-04-23 03:18 39.95521 -83.08308 7508 ft 165 kts 86°
2026-04-23 03:19 39.95562 -83.06811 7508 ft 165 kts 86°
2026-04-23 03:19 39.95603 -83.05314 7509 ft 165 kts 86°
2026-04-23 03:19 39.95651 -83.03814 7502 ft 165 kts 85°
2026-04-23 03:19 39.95711 -83.02318 7506 ft 165 kts 85°
2026-04-23 03:20 39.95784 -83.00824 7497 ft 165 kts 84°
2026-04-23 03:20 39.95874 -82.99333 7510 ft 165 kts 83°
2026-04-23 03:20 39.95969 -82.97838 7514 ft 165 kts 83°
2026-04-23 03:20 39.96069 -82.96363 7514 ft 165 kts 83°
2026-04-23 03:21 39.96183 -82.94854 7517 ft 165 kts 82°
2026-04-23 03:21 39.96306 -82.93384 7517 ft 165 kts 81°
2026-04-23 03:21 39.96427 -82.91874 7519 ft 166 kts 83°
2026-04-23 03:21 39.96502 -82.90396 7515 ft 166 kts 85°
2026-04-23 03:22 39.96541 -82.88894 7518 ft 166 kts 87°
2026-04-23 03:22 39.96554 -82.87394 7517 ft 166 kts 88°
2026-04-23 03:22 39.96550 -82.85890 7516 ft 166 kts 89°
2026-04-23 03:22 39.96538 -82.84384 7519 ft 166 kts 89°
2026-04-23 03:23 39.96528 -82.82884 7521 ft 166 kts 89°
2026-04-23 03:23 39.96497 -82.81376 7525 ft 166 kts 91°
2026-04-23 03:23 39.96427 -82.79873 7523 ft 166 kts 93°
2026-04-23 03:23 39.96351 -82.78370 7527 ft 166 kts 92°
2026-04-23 03:24 39.96298 -82.76865 7535 ft 166 kts 91°
2026-04-23 03:24 39.96269 -82.75355 7528 ft 167 kts 89°
2026-04-23 03:24 39.96263 -82.73851 7544 ft 166 kts 88°
2026-04-23 03:24 39.96286 -82.72345 7534 ft 166 kts 86°
2026-04-23 03:25 39.96326 -82.70839 7543 ft 166 kts 87°
2026-04-23 03:25 39.96330 -82.69336 7537 ft 166 kts 89°
2026-04-23 03:25 39.96308 -82.67832 7539 ft 166 kts 90°
2026-04-23 03:25 39.96268 -82.66324 7527 ft 166 kts 91°
2026-04-23 03:26 39.96225 -82.64817 7527 ft 166 kts 91°
2026-04-23 03:26 39.96185 -82.63310 7530 ft 166 kts 90°
2026-04-23 03:26 39.96155 -82.61805 7530 ft 167 kts 90°
2026-04-23 03:26 39.96137 -82.60296 7533 ft 166 kts 89°
2026-04-23 03:27 39.96138 -82.58785 7544 ft 166 kts 88°
2026-04-23 03:27 39.96154 -82.57280 7556 ft 166 kts 88°
2026-04-23 03:27 39.96163 -82.55775 7551 ft 167 kts 88°
2026-04-23 03:27 39.96161 -82.54266 7554 ft 166 kts 89°
2026-04-23 03:28 39.96160 -82.52776 7559 ft 166 kts 88°
2026-04-23 03:28 39.96167 -82.51265 7555 ft 167 kts 88°
2026-04-23 03:28 39.96188 -82.49758 7564 ft 166 kts 87°
2026-04-23 03:28 39.96230 -82.48252 7563 ft 166 kts 85°
2026-04-23 03:29 39.96298 -82.46746 7570 ft 166 kts 84°
2026-04-23 03:29 39.96395 -82.45238 7543 ft 168 kts 82°
2026-04-23 03:29 39.96524 -82.43723 7534 ft 168 kts 81°
2026-04-23 03:29 39.96685 -82.42224 7537 ft 167 kts 78°
2026-04-23 03:30 39.96873 -82.40728 7516 ft 168 kts 78°
2026-04-23 03:30 39.97057 -82.39231 7521 ft 167 kts 78°
2026-04-23 03:30 39.97245 -82.37740 7511 ft 167 kts 78°
2026-04-23 03:30 39.97426 -82.36244 7499 ft 167 kts 79°
2026-04-23 03:31 39.97588 -82.34748 7503 ft 167 kts 79°
2026-04-23 03:31 39.97743 -82.33240 7487 ft 167 kts 80°
2026-04-23 03:31 39.97896 -82.31735 7490 ft 167 kts 80°
2026-04-23 03:31 39.97996 -82.30740 7486 ft 167 kts 81°
2026-04-23 03:32 39.98126 -82.29232 7483 ft 168 kts 82°
2026-04-23 03:32 39.98243 -82.27721 7482 ft 167 kts 82°
2026-04-23 03:32 39.98356 -82.26206 7477 ft 168 kts 82°
2026-04-23 03:32 39.98465 -82.24690 7465 ft 168 kts 83°
2026-04-23 03:33 39.98542 -82.23171 7461 ft 168 kts 85°
2026-04-23 03:33 39.98596 -82.21652 7453 ft 168 kts 85°
2026-04-23 03:33 39.98640 -82.20130 7455 ft 168 kts 86°
2026-04-23 03:33 39.98667 -82.18606 7455 ft 168 kts 87°
2026-04-23 03:34 39.98682 -82.17078 7473 ft 168 kts 88°
2026-04-23 03:34 39.98691 -82.15551 7480 ft 168 kts 88°
2026-04-23 03:34 39.98698 -82.14026 7482 ft 168 kts 88°
2026-04-23 03:34 39.98700 -82.12504 7490 ft 168 kts 88°
2026-04-23 03:35 39.98705 -82.10980 7494 ft 168 kts 88°
2026-04-23 03:35 39.98730 -82.09454 7497 ft 168 kts 86°
2026-04-23 03:35 39.98765 -82.07933 7490 ft 168 kts 86°
2026-04-23 03:35 39.98809 -82.06438 7457 ft 165 kts 86°
2026-04-23 03:36 39.98818 -82.04923 7263 ft 170 kts 89°
2026-04-23 03:36 39.98786 -82.03410 7221 ft 163 kts 90°
2026-04-23 03:36 39.98773 -82.01917 6976 ft 169 kts 87°
2026-04-23 03:36 39.98831 -82.00381 6849 ft 166 kts 83°
2026-04-23 03:37 39.98926 -81.98896 6719 ft 165 kts 82°
2026-04-23 03:37 39.99016 -81.97374 6506 ft 165 kts 84°
2026-04-23 03:37 39.99025 -81.95921 6349 ft 161 kts 89°
2026-04-23 03:37 39.98972 -81.94445 6082 ft 164 kts 92°
2026-04-23 03:38 39.98894 -81.92970 5908 ft 161 kts 92°
2026-04-23 03:38 39.98841 -81.91509 5698 ft 162 kts 90°
2026-04-23 03:38 39.98824 -81.90049 5530 ft 159 kts 88°
2026-04-23 03:38 39.98834 -81.88602 5342 ft 160 kts 86°
2026-04-23 03:39 39.98880 -81.87149 5153 ft 160 kts 84°
2026-04-23 03:39 39.98953 -81.85713 4992 ft 158 kts 85°
2026-04-23 03:39 39.98984 -81.84281 4827 ft 157 kts 86°
2026-04-23 03:39 39.99013 -81.82855 4623 ft 158 kts 86°
2026-04-23 03:40 39.99038 -81.81431 4446 ft 157 kts 87°
2026-04-23 03:40 39.99028 -81.80010 4257 ft 157 kts 89°
2026-04-23 03:40 39.99020 -81.78582 4088 ft 157 kts 88°
2026-04-23 03:40 39.98950 -81.77161 3933 ft 158 kts 95°
2026-04-23 03:41 39.98766 -81.75752 3821 ft 156 kts 100°
2026-04-23 03:41 39.98529 -81.74387 3635 ft 154 kts 104°
2026-04-23 03:41 39.98239 -81.73033 3414 ft 155 kts 107°
2026-04-23 03:41 39.97866 -81.71725 3174 ft 154 kts 114°
2026-04-23 03:42 39.97383 -81.70511 2915 ft 151 kts 122°
2026-04-23 03:42 39.96833 -81.69375 2710 ft 145 kts 124°
2026-04-23 03:42 39.96298 -81.68314 2571 ft 138 kts 124°
2026-04-23 03:42 39.95785 -81.67267 2382 ft 135 kts 124°
2026-04-23 03:43 39.95323 -81.66278 2348 ft 124 kts 123°
2026-04-23 03:43 39.94873 -81.65331 2278 ft 121 kts 125°
2026-04-23 03:43 39.94455 -81.64454 2183 ft 109 kts 123°
2026-04-23 03:43 39.94077 -81.63615 2025 ft 106 kts 123°
2026-04-23 03:44 39.93725 -81.62796 1889 ft 102 kts 121°
2026-04-23 03:44 39.93502 -81.61951 1826 ft 98 kts 91°
2026-04-23 03:44 39.93726 -81.61147 1770 ft 94 kts 52°
2026-04-23 03:44 39.94186 -81.60552 1630 ft 93 kts 32°
2026-04-23 03:45 39.94710 -81.60109 1485 ft 87 kts 28°
2026-04-23 03:45 39.95211 -81.59707 1355 ft 83 kts 31°
2026-04-23 03:45 39.95690 -81.59306 1227 ft 81 kts 32°
2026-04-23 03:45 39.96152 -81.58907 1091 ft 78 kts 32°
2026-04-23 03:46 39.96595 -81.58528 966 ft 74 kts 32°
2026-04-23 03:46 39.97018 -81.58171 842 ft 70 kts 32°
2026-04-23 03:46 39.97384 -81.57863 802 ft 53 kts 32°
2026-04-23 03:46 39.97570 -81.57716 799 ft 13 kts 349°
2026-04-23 03:47 39.97608 -81.57764 801 ft 5 kts 306°
2026-04-23 03:47 39.97607 -81.57790 801 ft 0 kts 217°